CAPE
2250 2552 2818 3044 3102 3055 2942 2821 2768 2753 2599 2448 2382 2340 2247 2094 1932 1798 1718 1742 1712 1742 1764 1792 1780 1770 1750 1718 1665 1598 1436 1388 1298 1304 1325 1098 871 690 456 455 334 262 155 146 187 227 212 212 244 197 463 522 805 728 835 965 1118 1108 1262 1158 1530 1730 1794 1742 1353 1254 1596 1556 1515 1396 1489 1460 1369 1400 1351 1327 1262 1340 1240 1310 1382 1216 1268 1305 1571
2288 2523 2749 2943 2951 2901 2894 2749 2818 2700 2601 2512 2356 2286 2203 2079 1955 1835 1812 1784 1750 1701 1731 1755 1806 1750 1755 1723 1622 1509 1503 1352 1251 1236 1223 958 694 426 472 429 335 322 290 149 158 248 280 252 231 186 366 451 496 701 802 868 875 1153 1345 1476 1559 1599 1641 1599 1642 1658 1529 1526 1468 1464 1438 1389 1284 1146 1242 1185 1070 1219 1237 1247 1226 1137 1329 1430 1467
2448 2474 2636 2842 2828 2788 2775 2797 2856 2708 2582 2456 2340 2252 2168 2081 1925 1871 1862 1856 1839 1814 1797 1802 1793 1729 1760 1732 1648 1577 1468 1462 1352 1210 1120 904 648 432 403 475 394 331 228 212 265 290 275 336 297 233 310 351 520 488 625 781 1048 1160 1318 1354 1478 1467 1722 1751 1742 1740 1671 1497 1364 1368 1338 1329 1246 1188 1126 1046 856 856 1218 1275 1303 1186 1082 1354 1271
2337 2431 2549 2830 2718 2672 2701 2673 2582 2614 2506 2415 2361 2276 2171 2110 2007 1946 1897 1904 1864 1842 1807 1838 1797 1732 1693 1666 1658 1525 1440 1390 1376 1262 1164 819 469 473 483 413 386 316 347 303 245 239 409 396 292 331 444 430 442 549 615 677 740 854 920 998 1345 1552 1773 1925 1942 2030 1636 1334 1265 1050 1033 857 1016 1200 1148 1021 908 751 743 1220 1321 1266 1253 1364 1234
2426 2410 2546 2511 2554 2717 2655 2590 2560 2566 2454 2394 2327 2222 2161 2095 2064 2078 2038 1986 1952 1896 1834 1821 1778 1727 1721 1693 1683 1556 1531 1441 1469 1176 1050 758 662 539 488 388 388 421 369 233 185 410 567 490 433 319 343 377 501 586 594 581 548 624 748 835 1000 1174 1565 1686 1716 1429 1310 1217 1059 904 756 729 804 974 824 868 779 667 656 622 978 1252 1227 1364 1284
2274 2378 2367 2333 2487 2659 2600 2527 2528 2533 2464 2413 2368 2282 2200 2110 2089 2096 2140 2090 1929 1820 1799 1828 1755 1746 1754 1693 1700 1609 1569 1441 1391 1073 939 980 828 619 370 276 479 389 452 429 478 680 635 708 445 403 289 287 482 585 595 567 486 508 575 637 715 797 936 1190 1466 1596 1662 1577 944 670 695 738 744 779 820 801 789 700 665 586 543 624 1259 1397 1344
2106 2121 2198 2319 2429 2630 2569 2511 2508 2500 2450 2453 2371 2262 2240 2188 2140 2175 2154 2091 1961 1872 1806 1820 1791 1726 1724 1685 1640 1645 1543 1356 1288 1236 1385 1153 887 792 416 576 468 434 447 729 738 721 816 846 902 637 505 404 564 548 576 537 520 544 615 580 520 807 712 1056 898 1119 1273 1224 471 430 504 590 715 855 961 761 704 602 629 558 464 735 860 1380 1457
1948 1948 2139 2346 2477 2735 2539 2504 2491 2456 2442 2463 2384 2282 2263 2166 2153 2184 2082 2038 2007 1917 1802 1751 1694 1711 1658 1624 1617 1502 1647 1508 1519 1553 1597 1242 1052 1238 946 550 350 651 763 786 805 928 1066 1137 1218 1079 564 502 457 438 495 505 515 579 698 765 838 798 1156 1139 1119 1314 1767 1035 356 286 342 470 563 677 811 704 662 630 595 550 453 402 724 1143 1372
1798 1816 2150 2390 2565 2653 2520 2389 2435 2499 2466 2432 2406 2375 2299 2234 2208 2149 2098 2000 1882 1792 1717 1664 1659 1662 1669 1612 1545 1582 1482 1478 1331 1414 1472 1528 1341 1343 1033 635 690 901 1076 1001 1169 1411 1302 1294 1240 1199 1032 857 570 403 403 538 496 612 699 706 1006 954 1064 1057 1500 1074 208 149 77 69 109 128 270 395 709 687 531 316 339 346 326 379 328 904 1063
1703 1911 2227 2397 2493 2585 2437 2384 2450 2516 2430 2408 2412 2363 2300 2239 2215 2195 2101 1953 1865 1802 1704 1701 1732 1688 1604 1570 1514 1513 1514 1474 1532 1313 1416 1552 1381 1092 1307 924 897 890 1040 1144 1261 1256 1162 1190 1138 1196 1156 917 937 731 466 560 610 770 405 608 905 978 1189 1143 1166 284 107 101 75 55 135 243 335 436 626 445 232 151 389 342 205 271 615 630 684
1581 1890 2282 2404 2470 2449 2386 2454 2504 2437 2370 2438 2428 2390 2314 2234 2225 2192 2077 1984 1890 1816 1866 1770 1769 1730 1604 1455 1430 1536 1572 1556 1368 1280 1284 1555 1352 1300 1071 1153 1137 1161 1356 1517 1438 1439 1421 1408 1315 1092 996 995 980 1066 1154 676 888 883 866 694 1163 1155 1130 1228 700 26 8 8 13 44 178 371 240 253 464 417 340 307 305 317 247 215 253 605 599
1530 1930 2280 2405 2623 2403 2451 2446 2471 2433 2487 2404 2417 2404 2303 2300 2260 2200 2102 2036 1947 1833 1812 1837 1843 1768 1621 1581 1498 1606 1625 1436 1398 1220 1356 1470 1347 1300 1187 1216 1374 1530 1541 1530 1591 1557 1422 1324 1216 1084 1094 1046 1052 1077 1033 1248 1042 1149 1164 1057 1240 1194 973 1315 534 0 0 4 26 43 88 184 248 182 118 124 159 186 217 172 168 151 154 206 655
1770 2148 2301 2348 2380 2465 2421 2448 2485 2527 2494 2459 2348 2321 2301 2256 2290 2306 2190 2117 2019 1908 1805 1886 1867 1898 1814 1621 1603 1750 1806 1610 1645 1570 1430 1412 1416 1432 1410 1476 1629 1656 1629 1590 1488 1437 1370 1230 1215 1198 1163 1181 1211 1254 1303 1272 1286 1292 1254 1323 1325 1244 1024 1244 492 91 57 37 47 26 27 51 71 261 275 228 211 199 192 205 213 193 193 199 386
1984 2079 2185 2262 2412 2667 2381 2439 2398 2454 2397 2334 2260 2279 2220 2229 2261 2145 2034 2045 2031 2054 1995 1997 1981 1955 1906 1908 1995 1961 2054 1918 1788 1400 1375 1522 1547 1477 1654 1681 1663 1754 1638 1460 1412 1398 1428 1328 1348 1221 1167 1195 1263 1374 1437 1516 1229 1148 1349 1182 1272 1157 1353 804 563 87 70 68 89 17 17 193 347 452 311 229 178 263 254 220 182 141 159 144 503
1813 2014 2172 2322 2412 2459 2569 2374 2376 2285 2224 2151 2094 2101 2092 2061 2030 1942 1933 2042 2129 1985 2066 2065 2045 2038 2010 1995 2044 2067 2119 2016 1860 1544 1702 1794 1808 1774 1729 1707 1723 1724 1452 1382 1506 1380 1318 1226 1186 1187 1194 1216 1283 1250 1224 1327 1274 1280 1451 1288 1249 1322 1361 1178 542 398 82 98 60 21 21 252 491 373 245 298 387 326 296 242 199 256 252 237 324
1669 2000 2126 2176 2241 2334 2346 2396 2182 2064 2056 2038 2006 2021 2023 1981 1949 1884 1974 2078 2041 1995 2006 2022 1982 1907 1940 1934 1899 1954 2064 2102 2142 2130 2033 1989 1968 1872 1755 1675 1720 1526 1389 1456 1498 1474 1336 1341 1280 1234 1242 1284 1246 1303 1118 1456 1240 1485 1288 1346 1256 1304 1547 1960 322 118 12 16 30 25 0 303 572 415 350 219 156 186 197 194 203 200 171 157 160
1541 1745 1932 2092 2176 2115 2086 2172 2046 2013 1975 1950 2035 2041 1950 1949 1954 1966 2049 2023 2003 1945 1888 1922 1835 1833 1830 1789 1656 1556 1736 2058 2073 2157 2104 2059 1921 1769 1628 1575 1598 1387 1375 1456 1523 1399 1275 1318 1320 1259 1251 1295 1310 1268 1258 1548 1548 1432 1410 1433 1504 1733 2175 1433 329 477 51 108 94 65 113 308 493 539 314 361 281 311 260 246 237 238 218 184 94
1430 1457 1799 1939 1931 1863 1890 1924 1947 1784 1784 2027 2077 2010 1960 1965 1984 1981 1986 1901 1890 1946 1962 1854 1858 1734 1785 1724 1610 1532 1744 2064 2066 2087 2026 1994 1845 1790 1586 1534 1442 1343 1199 1412 1384 1476 1448 1324 1267 1190 1197 1300 1359 1337 1411 1520 1390 1506 1425 1577 1714 1912 2014 648 595 566 427 350 52 115 54 301 304 331 280 337 299 275 241 238 213 196 180 154 126
1429 1431 1496 1567 1729 1725 1788 1800 1678 1614 1682 1700 1775 1882 1945 1897 1922 1953 1884 1884 1907 1922 1906 1886 1878 1785 1634 1534 1592 1599 1799 1998 2009 2023 1936 1764 1787 1756 1719 1588 1404 1319 1281 1327 1377 1239 1331 1478 1449 1345 1298 1248 1373 1410 1102 1427 1172 1363 1464 1769 1883 1864 981 605 593 557 400 33 11 31 142 248 358 321 366 312 332 241 195 176 155 147 139 114 156
1194 1060 1049 1221 1554 1655 1641 1548 1500 1498 1550 1569 1593 1666 1836 1935 1919 1930 1897 1894 1949 1994 1864 1920 1898 1782 1674 1689 1543 1609 1699 1857 1916 1856 1680 1660 1680 1518 1639 1483 1405 1342 1356 1331 1196 1151 1147 1331 1320 1304 1374 1359 1346 1315 1294 1224 1402 1314 1550 1708 1872 1080 663 568 591 549 261 128 94 203 341 364 286 372 310 204 51 269 257 243 264 231 214 206 194
1209 1112 1054 975 1306 1536 1481 1351 1374 1366 1357 1408 1477 1507 1832 2070 2006 2105 1864 1918 1908 1912 1903 1928 1898 1746 1695 1606 1458 1438 1530 1596 1556 1627 1697 1587 1470 1622 1558 1422 1335 1345 1364 1266 1081 1092 1061 1209 1351 1404 1364 1470 1387 1275 1167 1344 1271 1411 1508 1556 1460 618 421 392 426 474 139 187 201 132 206 278 305 291 232 180 128 202 181 212 228 186 142 103 85
1110 1042 1003 955 1238 1368 1223 1198 1233 1183 1249 1268 1394 1548 1894 1708 1604 1760 1800 1845 1868 1899 1932 1738 1907 1565 1760 1510 1320 1395 1300 1396 1436 1453 1521 1628 1540 1574 1437 1384 1305 1322 1294 1156 955 953 821 1036 1287 1424 1500 1443 1360 979 912 992 987 1028 1419 1731 1021 894 490 377 314 129 142 144 270 469 487 268 225 222 240 208 218 176 111 108 82 80 53 83 115
1174 863 887 839 1116 1143 935 994 1122 1100 1258 1237 1364 1574 1637 1484 1523 1597 1573 1636 1781 1948 1632 1780 1512 1472 1380 1251 1218 1185 1158 1249 1295 1462 1327 1463 1515 1442 1330 1291 1262 1273 1180 1022 925 805 910 783 908 1172 1454 1361 1161 889 670 663 598 1116 1093 1005 847 935 374 384 397 316 105 151 61 196 300 433 261 207 160 196 144 100 78 86 100 95 84 98 74
1228 893 871 858 1036 1061 984 995 1060 1107 1187 1141 1337 1486 1450 1495 1506 1511 1512 1448 1569 1423 1394 1438 1378 1388 1342 1234 1216 1185 1186 1209 1397 1315 1365 1364 1359 1438 1296 1238 1197 1200 1130 1040 869 802 835 784 891 894 1088 1152 1088 1052 938 951 553 851 864 857 601 416 467 408 398 358 86 204 367 664 402 312 185 95 120 144 190 221 182 142 82 54 26 33 40
1323 1200 1018 969 1057 1056 1036 1033 1004 1031 1006 1029 1262 1290 1357 1424 1426 1444 1408 1320 1305 1262 1252 1219 1313 1325 1322 1306 1351 1321 1230 1214 1050 997 1247 1282 1230 1105 1064 958 1006 986 1009 522 516 589 594 250 410 529 521 712 858 1044 1263 1119 997 967 660 786 561 454 448 375 366 336 257 173 434 440 247 277 231 194 201 172 178 130 127 106 64 50 25 40 33
1404 1332 1140 996 1012 992 976 1029 957 841 790 961 1118 1142 1299 1292 1312 1342 1294 1268 1234 1169 1132 1082 1161 1214 1212 1284 1243 1012 1461 992 900 965 1100 1128 1095 1059 994 927 917 873 896 351 331 325 242 236 147 59 275 558 508 543 946 1137 1281 930 713 830 628 503 476 499 446 390 292 286 297 238 378 268 370 208 205 255 181 123 99 103 78 54 56 58 40
1528 1375 1176 1001 922 949 936 962 757 688 628 944 1034 1129 1198 1184 1238 1274 1242 1299 1184 1097 1006 981 1043 1132 1191 1306 1197 1175 1163 873 890 924 936 963 1007 1019 948 891 835 814 640 438 60 191 35 102 162 80 184 409 426 469 590 1130 914 750 450 699 626 529 590 564 476 461 309 180 528 452 538 413 288 174 210 203 210 163 126 78 58 55 38 42 34
1595 1396 1178 1075 1006 876 948 865 655 597 608 906 991 970 1068 1096 1188 1312 1160 1261 1147 980 929 1035 1240 1344 1309 1246 1082 1116 1017 924 943 974 897 855 890 910 890 907 831 794 692 432 315 72 29 94 235 231 176 221 250 360 506 539 698 492 469 650 703 732 953 545 532 454 344 129 322 414 595 565 364 200 225 141 118 162 135 112 92 50 18 18 39
1514 1350 1247 1208 1105 970 987 936 732 634 641 914 880 851 897 955 1012 1100 1026 1516 1095 1014 874 1134 1271 1291 1288 1075 860 867 847 837 922 1041 1055 980 951 974 978 990 882 884 824 412 474 267 39 276 278 263 215 355 423 360 297 479 616 490 452 545 560 868 982 646 575 437 69 194 459 546 548 384 561 374 196 175 162 106 92 58 58 88 65 42 10
1747 1762 1602 1354 1164 972 1032 991 848 644 786 1127 995 979 828 860 895 998 1299 1227 1150 1080 831 1023 1187 1150 1042 883 737 651 690 643 730 794 1026 820 939 794 909 961 870 835 864 501 627 346 194 209 185 198 301 320 369 432 311 399 449 531 416 426 481 936 878 651 624 492 425 551 700 789 627 610 568 419 289 192 190 161 118 128 147 85 17 3 2
1682 1759 1829 1556 1300 1109 995 1116 954 797 938 1142 1075 1053 849 916 866 1302 1304 1098 1176 1149 943 918 1078 1013 889 787 751 678 580 505 592 659 715 798 636 470 645 634 642 635 611 672 690 449 180 327 362 366 305 364 906 332 338 336 315 548 468 501 542 795 1058 1024 655 654 604 711 787 735 564 352 404 517 483 464 310 192 171 79 46 28 40 37 34
1667 1725 1699 1678 1402 1191 1104 1194 974 870 935 1096 1110 1034 811 893 893 1483 1418 1323 1250 1176 1149 1055 1038 936 768 738 708 626 436 342 502 528 498 638 623 506 387 319 49 268 721 564 294 646 846 1068 1093 1185 1303 1049 395 96 250 221 369 543 621 489 479 718 1066 1136 801 701 629 800 847 652 390 467 544 500 616 652 477 264 87 109 86 74 49 50 38
1691 1607 1797 1749 1612 1330 1151 1261 1056 850 786 860 1059 1023 928 894 921 1516 1445 1410 1295 1295 1262 1131 1033 880 724 657 652 479 405 418 396 436 370 430 545 472 333 322 293 343 839 975 1036 1214 1153 1084 1125 1213 1286 649 398 136 311 322 350 437 488 575 483 650 1102 1260 808 720 692 774 754 503 314 296 410 584 634 593 401 248 200 186 232 220 129 8 0
1651 1697 1751 1702 1502 1353 1208 1199 1041 891 681 916 1057 1071 1019 883 1049 1436 1463 1398 1386 1352 1358 1244 1008 846 694 618 604 618 544 512 388 398 375 385 398 393 292 384 478 594 846 1225 952 1283 1061 1196 1236 1129 2017 532 400 355 373 316 265 401 465 546 470 637 1114 1202 887 814 758 735 664 413 162 193 276 282 487 491 596 449 411 400 340 369 280 196 139
1881 1853 1774 1648 1476 1193 1138 1038 1134 867 800 954 916 1007 1023 928 1186 1405 1364 1399 1371 1346 1313 1184 949 831 736 678 644 682 661 517 502 342 324 327 258 188 323 497 555 691 938 1084 1479 1379 1321 1067 925 815 714 217 413 244 352 305 356 352 380 419 436 758 1069 1166 917 868 775 696 588 394 386 486 431 462 543 639 1044 716 708 549 455 479 494 358 270
1732 1664 1595 1522 1321 1155 1044 930 978 936 829 913 998 1030 912 921 1273 1552 1424 1415 1339 1275 1252 1153 940 871 888 748 637 659 666 682 654 463 293 222 227 347 462 442 613 1160 1112 1147 1850 1299 1066 1368 1224 1118 502 282 191 263 306 337 342 348 390 439 648 802 906 1077 948 874 726 607 563 551 569 593 555 495 688 432 223 555 701 689 645 509 556 506 472
1717 1624 1524 1383 1224 1150 1087 867 851 831 691 654 825 963 881 894 1418 1470 1398 1324 1213 1149 1178 1105 996 803 804 754 714 623 755 824 656 434 314 581 504 900 632 521 881 1086 972 1045 1471 1503 720 1472 1323 1322 481 446 331 379 306 338 384 398 335 502 734 904 914 948 942 797 742 644 588 516 422 378 499 816 459 348 170 455 732 671 502 622 633 479 338
1818 1674 1482 1352 1320 1152 1014 1048 755 803 562 558 744 906 1008 1014 1109 1218 1200 1192 986 945 992 1041 986 806 870 803 747 694 708 760 476 537 371 635 755 949 872 898 1023 1253 1014 1051 1001 930 711 1151 986 1096 604 215 306 237 277 419 467 385 477 640 838 890 835 711 713 847 732 728 610 447 256 333 599 480 415 334 232 463 519 688 706 637 596 477 260
1682 1560 1498 1488 1353 1113 922 855 787 780 509 526 593 904 940 922 899 840 861 830 883 913 813 854 864 810 727 723 643 679 604 593 514 495 676 885 986 892 954 920 950 973 902 878 990 813 628 1342 743 811 714 497 355 385 412 481 468 520 509 674 781 773 758 719 725 813 774 819 630 464 221 399 438 407 438 148 82 362 470 514 434 404 446 488 517
1600 1666 1572 1537 1312 1084 968 917 932 822 708 762 663 850 854 828 686 772 703 758 891 944 882 948 946 730 744 704 634 654 509 515 504 580 669 901 933 829 873 828 952 886 871 949 957 919 834 826 742 746 501 331 336 416 486 525 511 448 530 652 669 620 786 601 625 711 772 646 516 381 407 512 367 365 274 208 222 246 229 349 351 417 386 590 661
1568 1482 1348 1296 1085 1109 1233 812 308 360 712 726 879 966 837 822 729 785 838 742 740 764 980 1024 883 740 713 670 622 638 551 451 497 618 863 948 990 611 578 750 883 719 810 768 774 1015 886 891 718 905 496 459 475 336 445 477 450 476 508 474 544 638 576 648 598 489 558 696 631 591 603 580 489 476 356 77 68 86 362 415 449 385 430 465 470
1614 1556 1416 1271 1325 1408 1266 1404 1139 766 711 663 671 810 971 834 614 678 739 733 744 711 774 882 898 757 668 623 594 528 476 375 552 640 869 889 915 658 568 683 938 715 690 997 1120 1029 838 1004 829 770 646 389 516 435 446 506 457 405 372 476 493 551 439 537 464 389 138 239 545 528 615 564 481 440 435 263 96 74 133 138 508 493 99 83 64
1647 1609 1440 1430 1303 1196 1416 1394 1162 939 803 780 774 923 887 793 661 563 596 750 735 837 878 788 811 809 628 654 597 571 396 491 548 616 692 800 833 486 363 495 732 764 725 780 949 1245 880 667 897 735 550 504 574 503 539 554 476 436 439 363 322 296 288 517 492 463 351 122 455 454 483 412 416 381 357 132 98 70 68 285 258 322 521 420 100
1718 1568 1466 1402 1160 1338 1509 1474 1455 1187 1021 1130 1091 936 823 690 552 526 540 851 730 694 698 804 734 632 611 600 523 596 376 523 538 560 561 631 616 340 434 497 890 820 746 730 884 842 751 1169 859 696 690 617 589 547 482 638 550 403 346 436 201 260 296 387 379 170 303 335 360 254 214 304 341 114 8 52 81 0 3 14 49 229 263 308 349
1702 1606 1508 1367 1279 1319 1262 1402 1307 1208 1066 1130 959 859 842 740 598 487 516 577 606 641 703 816 838 703 596 703 606 588 488 505 570 542 465 611 754 444 447 626 828 898 941 748 754 890 1115 1048 969 715 591 681 862 955 979 590 509 344 232 0 18 191 166 263 158 78 260 325 314 263 165 170 288 49 57 129 42 57 53 108 262 142 181 232 49
1819 1604 1472 1496 1517 1352 1256 1279 1240 1217 1166 1112 965 786 840 765 549 473 477 453 493 558 527 771 861 905 795 614 721 505 471 555 464 542 591 572 754 701 698 828 662 796 1003 907 1040 926 966 1087 1072 878 723 724 800 835 945 900 649 513 278 805 45 59 160 36 40 8 198 249 74 240 65 32 92 64 125 357 168 39 35 139 75 141 204 90 103
1982 1470 1462 1652 1633 1502 1418 1428 1431 1262 1132 1178 1010 839 792 686 578 504 503 562 539 526 669 784 803 811 770 577 531 471 430 557 471 535 593 553 588 602 649 678 675 861 960 924 816 1001 1001 1082 956 720 629 778 754 715 795 885 768 828 705 732 802 444 38 20 218 100 185 218 350 224 72 64 56 59 251 190 245 352 155 132 88 150 107 34 5
1867 1143 1516 1614 1734 1619 1570 1682 1565 1356 1244 1190 1123 991 877 735 665 561 596 644 617 545 646 736 671 752 764 662 492 530 579 610 485 374 348 441 684 549 575 639 722 720 1009 938 995 904 1013 908 880 754 770 832 714 654 763 791 694 852 874 592 573 260 149 107 52 96 164 205 160 253 230 245 175 178 315 416 311 292 260 52 49 53 84 25 0
1559 1329 1705 1860 1850 1710 1679 1768 1596 1448 1354 1249 1188 1094 963 860 722 674 666 711 725 678 600 603 723 766 856 611 515 519 535 306 492 568 444 465 785 821 628 865 733 987 922 980 949 1006 986 790 743 821 744 788 710 722 725 674 743 740 595 679 722 370 81 182 246 74 59 102 148 213 198 125 187 25 239 344 142 92 57 10 55 32 3 0 0
1334 1548 1806 1920 1850 1690 1626 1729 1633 1590 1468 1352 1255 1143 1001 921 857 793 712 784 758 670 711 779 871 604 677 500 473 379 535 429 551 720 475 632 729 796 885 799 840 932 868 1005 808 842 930 777 823 790 973 996 812 624 610 640 816 659 578 702 803 572 365 209 209 148 103 122 128 96 1 0 91 147 228 113 136 89 22 18 22 16 0 0 0
1355 1438 1286 1758 1741 1618 1799 1690 1718 1644 1547 1480 1340 1211 1066 915 866 840 774 703 684 809 894 989 864 459 461 370 245 272 414 503 594 700 821 718 722 790 760 849 785 840 713 859 702 944 767 1011 1024 873 887 853 948 767 614 692 774 752 857 806 741 608 495 366 321 261 66 97 62 88 40 23 14 47 134 149 210 33 19 10 15 0 0 0 0
Wind_Speed
21 27 26 30 31 33 34 36 36 36 37 37 36 35 35 36 37 37 37 37 38 38 37 37 37 36 35 35 34 33 31 30 29 29 28 28 28 28 28 28 28 27 25 24 22 22 21 21 21 21 20 19 18 18 18 18 18 17 16 17 18 18 18 18 19 18 18 17 16 16 15 15 15 15 15 16 16 15 14 14 11 7 5 8 14
26 23 24 28 33 33 34 36 35 36 36 36 36 35 35 36 37 37 37 37 38 39 38 38 37 37 37 36 35 33 31 30 29 29 29 28 27 27 29 28 28 26 26 23 22 21 21 21 21 20 19 18 18 18 18 17 17 16 16 16 16 16 16 17 16 17 17 17 17 17 17 17 16 15 15 15 15 16 15 15 14 6 4 13 15
29 25 23 27 33 34 34 35 35 35 35 35 35 35 35 36 36 37 37 37 37 38 39 38 38 38 38 37 35 33 31 29 29 29 29 28 28 29 29 29 29 27 26 23 22 22 21 21 20 20 18 17 17 17 17 17 15 14 14 13 14 15 13 14 16 17 17 17 16 16 17 17 16 15 15 16 16 16 16 16 15 11 8 16 13
34 26 24 28 33 33 34 34 34 35 34 34 34 35 35 35 36 37 38 37 37 38 40 39 38 38 38 38 35 33 31 30 29 29 28 28 28 29 30 30 28 27 24 22 21 21 22 21 21 20 17 16 15 14 15 15 15 14 13 13 11 11 10 9 11 14 16 15 14 12 5 5 9 14 15 16 16 16 15 16 17 17 17 15 17
36 29 27 27 28 33 34 34 34 33 33 33 33 35 35 36 36 36 37 37 37 38 40 39 39 38 38 38 36 33 31 29 28 29 28 28 27 29 29 29 28 25 23 22 21 22 23 21 19 18 16 15 13 12 12 12 10 9 9 9 8 6 6 6 6 12 18 15 12 7 5 6 5 13 15 16 16 15 15 14 16 17 17 18 17
35 30 28 27 28 31 34 33 33 33 33 33 34 35 35 36 38 37 37 37 37 38 39 39 39 38 38 37 36 33 31 29 28 29 29 27 26 28 30 29 27 25 23 21 21 22 22 21 19 17 15 14 11 10 10 9 8 7 4 4 4 4 5 4 3 1 3 8 9 3 4 6 5 7 16 16 17 16 16 16 15 15 17 18 18
36 29 29 27 26 29 33 33 32 32 33 33 34 35 36 36 38 37 36 37 37 37 37 38 39 39 38 37 35 33 30 30 30 29 28 27 26 26 30 29 26 24 22 20 21 21 20 20 19 17 14 12 10 7 6 5 6 5 4 4 4 3 4 5 4 7 5 3 2 3 3 6 6 6 15 15 16 17 18 17 16 16 15 17 16
33 30 29 27 25 29 32 32 32 32 33 33 34 35 35 36 37 37 37 37 37 37 37 37 39 39 38 37 34 34 32 30 30 30 28 27 26 27 29 28 25 23 21 20 19 19 19 18 18 16 13 12 10 6 4 4 4 4 3 3 2 3 5 5 6 8 8 3 5 4 5 7 5 6 14 16 17 17 18 17 15 15 16 17 15
33 32 30 27 25 31 30 31 32 33 33 33 34 34 35 36 37 37 37 37 37 37 37 37 39 39 38 36 34 32 32 31 31 31 28 26 28 29 28 27 25 23 20 19 18 17 17 17 17 15 12 11 9 5 3 2 1 1 2 1 2 3 5 4 7 7 6 6 nan nan 8 6 5 7 13 17 19 18 17 15 15 16 16 16 16
34 31 29 25 23 28 29 30 32 33 33 33 34 35 35 36 36 36 36 37 36 36 36 36 38 38 37 37 34 32 31 31 31 31 28 28 30 30 28 27 26 23 22 20 19 17 17 16 15 13 11 9 7 5 2 1 1 1 1 1 2 3 5 8 8 7 5 8 nan nan 8 9 6 7 13 18 18 18 17 16 13 12 12 15 16
33 28 26 22 22 26 28 30 33 34 34 34 34 35 36 37 37 36 36 36 36 35 35 36 36 36 36 36 34 31 31 31 31 31 29 30 31 29 29 26 25 23 22 20 20 20 18 16 13 12 9 8 7 5 3 1 1 1 1 2 4 6 8 9 6 nan nan nan nan nan 10 11 6 6 15 18 18 18 17 17 16 15 15 16 15
25 23 20 19 25 27 29 32 34 35 35 35 36 36 36 35 36 36 36 36 36 36 35 34 34 35 36 35 33 31 30 30 31 31 30 31 31 30 28 27 26 24 22 22 22 20 18 16 14 11 9 8 7 6 4 2 1 0 0 1 4 6 7 7 2 nan nan nan nan nan nan 7 7 11 16 16 17 17 17 16 17 16 15 16 15
24 22 22 22 24 29 30 33 34 35 35 35 36 37 36 36 36 36 35 35 35 36 36 34 34 33 33 33 32 30 29 29 30 30 30 31 31 30 28 27 26 25 24 23 22 20 18 16 14 13 10 8 8 7 5 2 3 3 1 2 3 6 7 7 2 nan nan nan nan nan nan nan nan 15 16 17 17 16 17 17 17 16 17 15 17
25 23 24 24 24 31 32 33 34 36 36 36 37 36 37 37 36 36 36 36 35 35 34 34 33 33 32 31 30 29 28 29 29 31 32 31 31 30 28 27 27 26 25 23 23 20 18 16 14 13 11 9 9 8 6 4 5 3 3 3 4 4 5 2 7 nan nan nan nan nan nan 6 8 14 15 15 16 17 17 17 17 17 17 16 17
26 27 26 24 25 27 36 35 35 37 37 38 38 38 38 37 37 37 37 37 36 35 35 34 33 32 31 30 31 29 28 29 29 31 32 32 31 29 29 28 27 27 25 24 23 20 18 17 16 14 11 9 9 8 7 4 5 8 6 6 5 4 5 1 7 8 nan nan nan nan nan 8 14 13 15 17 17 17 16 16 17 17 18 18 18
32 31 29 27 27 29 30 36 37 38 38 39 39 39 39 39 39 39 39 37 37 36 35 34 33 32 31 30 30 28 29 29 29 30 31 31 31 30 30 29 28 26 25 25 23 21 19 18 17 15 12 9 9 8 7 5 3 6 6 6 5 5 4 3 10 10 nan nan nan nan nan 10 18 15 16 16 16 16 15 15 15 16 16 17 17
36 31 30 29 29 29 30 31 34 41 40 40 40 41 41 41 41 40 40 40 40 38 36 35 34 33 32 32 29 28 29 29 30 30 31 31 31 30 30 30 28 26 26 24 23 21 20 18 17 16 13 8 8 7 6 6 4 1 3 4 5 5 5 11 12 11 nan 11 nan nan 7 9 17 17 17 17 17 16 16 15 15 15 16 16 nan
33 29 28 27 27 28 28 30 32 33 34 39 41 42 42 42 41 41 42 43 42 39 37 36 35 34 33 30 28 28 28 29 29 29 30 30 30 30 30 30 28 26 25 24 22 22 21 18 17 15 12 9 7 6 6 7 6 4 1 2 4 6 9 16 12 13 13 12 nan 7 nan 13 16 15 17 17 17 17 17 16 15 15 16 16 16
29 29 26 27 27 27 27 29 31 33 35 34 34 38 43 42 41 41 43 42 41 39 38 37 37 36 34 31 28 27 28 28 29 29 29 29 30 31 30 28 27 26 25 24 23 22 20 18 16 14 12 9 7 6 7 7 6 5 2 3 6 9 16 12 12 15 14 nan nan nan 8 15 14 16 18 18 17 17 17 16 15 15 15 15 16
28 27 25 25 26 25 24 26 27 31 32 32 35 36 39 40 40 41 41 40 39 37 37 38 38 36 33 29 27 24 26 25 30 28 30 30 30 28 31 28 28 27 26 24 23 21 19 18 16 13 10 9 8 7 7 4 5 6 5 4 6 7 11 12 14 15 13 11 nan 7 12 15 16 16 16 17 nan 17 16 15 16 16 15 14 15
24 23 22 24 25 26 26 27 30 31 30 29 28 27 29 35 36 38 39 40 39 36 35 37 37 34 31 27 24 22 21 22 24 24 29 26 30 31 31 29 28 27 26 24 23 21 19 17 15 13 9 6 7 7 6 5 6 6 4 2 5 7 14 14 13 14 12 9 9 10 16 15 15 16 17 16 17 17 16 16 16 16 16 14 nan
25 23 23 25 26 26 27 30 32 33 31 27 25 25 27 31 30 30 30 33 36 35 31 30 32 30 29 25 22 21 21 22 23 25 24 26 29 32 30 28 27 26 25 23 22 20 18 16 15 14 10 6 6 8 8 6 6 6 4 4 6 7 13 14 14 13 13 10 9 12 17 17 16 16 17 17 17 17 16 16 nan nan nan nan 16
27 25 24 26 26 26 27 31 33 34 33 29 28 27 29 28 28 28 27 28 29 30 29 29 29 28 25 24 22 21 22 22 22 24 25 29 29 31 30 29 27 25 23 21 20 18 17 15 14 12 10 8 7 7 7 8 9 8 7 7 6 9 13 14 14 11 11 11 nan 17 16 18 18 17 17 18 17 nan nan nan nan nan nan nan nan
28 27 26 25 28 28 29 32 34 35 34 31 29 28 28 27 26 26 25 21 22 24 26 27 27 26 25 23 21 22 23 22 24 29 29 27 28 29 29 28 27 24 22 19 17 16 14 13 13 10 9 7 7 7 7 9 12 12 13 12 9 9 11 16 14 11 nan 13 14 19 18 19 19 nan 17 17 18 19 18 18 nan nan nan nan nan
29 29 26 27 29 30 31 34 34 34 35 32 29 27 26 26 25 25 24 19 18 20 22 24 24 24 23 22 22 23 24 24 24 25 26 28 27 26 24 21 20 18 18 16 14 13 12 11 10 8 6 7 7 7 8 11 12 16 17 16 11 5 10 14 15 13 12 14 17 21 20 18 20 20 18 18 18 18 18 18 nan nan nan nan nan
29 27 27 28 29 30 32 34 35 34 34 33 29 27 26 26 25 24 24 18 17 18 20 20 21 22 22 22 24 25 25 26 25 26 27 28 27 25 22 20 18 16 14 14 12 12 10 9 9 nan 5 7 8 8 12 15 15 14 17 15 14 10 11 13 14 14 14 15 18 24 19 18 18 19 19 19 19 18 nan 18 nan nan nan nan nan
27 27 28 29 30 31 33 35 35 34 35 34 30 27 25 26 25 24 24 19 16 17 18 19 21 23 23 24 26 25 26 27 26 27 28 27 25 22 19 17 15 13 12 12 nan 11 nan 8 8 nan 6 8 8 9 13 16 17 15 16 15 13 12 13 14 13 14 14 16 18 23 19 18 19 19 18 19 18 18 18 nan nan nan nan nan nan
27 29 30 32 33 33 34 35 36 35 36 36 33 29 26 26 25 24 24 20 17 18 19 20 22 24 24 25 26 25 26 27 26 27 27 26 23 19 17 15 11 10 11 11 11 nan nan nan 8 6 7 10 10 9 12 17 16 16 15 13 12 10 12 13 13 14 15 15 15 20 20 20 19 19 20 20 19 18 17 17 nan nan nan nan nan
25 30 33 34 33 33 35 36 36 37 36 35 33 29 26 26 26 25 24 21 20 20 19 19 21 23 24 25 25 26 27 26 26 24 26 25 22 19 15 11 9 8 10 8 10 9 nan 8 8 9 10 10 11 11 10 16 15 15 15 13 12 10 13 14 14 14 nan 14 15 18 22 21 18 19 19 19 19 17 nan nan nan nan nan nan nan
27 33 33 31 32 32 35 36 37 38 36 34 32 29 26 27 27 26 23 23 22 22 19 18 20 23 24 24 25 26 26 25 26 25 25 26 23 17 13 9 7 7 8 7 7 9 9 9 10 10 10 10 12 13 15 15 15 16 15 13 12 10 9 12 14 13 13 14 14 16 22 19 18 17 17 16 17 17 16 16 16 nan nan nan nan
30 33 28 28 30 32 32 34 35 35 34 31 31 30 28 29 29 24 23 24 22 22 20 19 21 23 24 24 26 27 26 25 25 25 25 24 21 19 16 11 9 5 6 7 8 9 9 10 10 9 10 12 16 16 11 12 12 15 15 13 11 10 8 9 14 13 12 13 14 14 16 20 18 15 13 12 15 16 17 nan nan nan nan nan nan
33 32 26 26 30 32 33 35 38 36 34 30 28 28 26 26 27 25 25 24 22 21 21 20 22 24 23 24 25 26 26 25 24 24 23 22 20 19 16 14 nan 9 6 10 10 9 10 11 12 11 13 17 21 nan 7 10 13 15 15 11 10 9 7 7 12 13 12 12 13 12 13 13 16 14 12 11 12 15 nan 16 nan nan nan nan nan
29 27 28 27 30 32 34 35 36 34 32 30 29 28 22 21 24 25 26 26 24 23 22 22 24 23 23 24 25 25 25 24 23 22 21 19 18 20 19 15 12 12 7 9 8 9 10 10 9 10 11 23 19 7 8 11 14 15 14 10 9 9 7 7 10 12 12 11 12 12 11 10 9 11 10 10 9 12 14 15 16 16 16 nan nan
32 31 31 32 30 31 33 35 36 31 29 30 29 27 22 22 24 25 25 27 27 26 25 25 24 23 22 23 24 24 24 22 20 18 18 18 17 16 14 11 10 10 6 8 6 8 8 9 8 9 9 19 18 12 10 12 12 14 13 11 10 7 6 7 8 10 10 10 11 10 9 8 8 6 4 7 8 8 9 11 12 14 14 13 14
35 34 34 32 32 34 35 36 33 28 28 30 27 24 22 26 27 26 24 25 28 27 25 25 23 22 22 22 22 22 21 19 15 14 14 16 15 13 11 8 9 7 8 7 5 6 8 7 8 8 11 19 15 12 11 12 14 14 10 11 10 7 6 7 9 9 9 8 9 8 8 8 7 5 4 4 6 7 7 8 9 9 9 11 12
35 34 31 33 33 34 36 37 31 27 29 25 24 23 21 23 26 28 28 25 25 25 24 24 23 22 20 19 19 17 16 15 11 10 13 14 13 13 10 10 9 9 8 7 5 6 7 8 8 8 15 21 14 11 12 15 17 13 10 11 8 8 7 7 9 9 7 8 8 7 7 6 6 5 5 4 3 4 7 7 7 6 6 8 10
34 33 32 33 33 33 36 36 31 29 28 20 25 24 24 24 27 29 28 23 21 21 22 22 21 20 17 17 16 13 13 13 11 10 13 14 12 11 10 10 9 9 8 8 7 7 7 8 8 10 17 20 17 13 14 17 15 12 10 10 9 7 6 7 7 5 4 7 7 7 6 6 5 5 3 3 3 4 5 6 6 4 2 5 9
33 31 30 32 32 32 32 32 29 27 24 25 26 24 22 26 27 30 27 22 20 19 19 19 19 18 16 15 15 13 12 12 11 10 12 14 12 11 11 10 10 9 9 8 8 7 7 8 8 10 16 20 16 15 14 17 14 11 10 10 9 7 6 8 7 5 6 7 6 6 6 5 3 2 2 5 4 4 2 4 5 3 2 1 7
31 29 28 30 32 31 30 31 28 24 24 29 27 22 24 28 27 30 26 22 17 15 16 16 17 17 15 15 16 15 13 12 11 11 11 13 14 13 11 9 9 8 10 8 7 7 7 8 8 11 19 19 17 14 15 17 16 10 11 11 10 8 8 7 5 7 6 6 7 6 5 4 3 2 3 4 nan 4 4 4 3 2 0 1 4
29 28 28 29 31 31 28 28 26 28 28 27 24 25 27 26 25 23 22 16 12 13 14 16 17 17 15 15 15 15 14 14 12 12 12 13 14 13 11 10 9 9 10 9 8 9 8 9 7 10 21 18 17 16 16 16 15 13 13 12 11 8 8 5 4 5 6 7 7 6 5 2 3 3 3 3 3 4 4 3 3 4 2 2 4
29 29 29 30 33 32 30 28 28 30 24 24 25 22 20 20 21 19 17 15 14 13 16 17 17 15 14 15 13 12 14 14 12 12 13 12 15 14 10 9 10 10 10 8 7 9 7 8 5 13 18 19 16 16 16 13 17 15 13 12 12 10 8 5 7 8 8 8 7 5 3 5 5 5 4 nan nan nan 4 3 3 3 4 5 4
26 30 30 32 36 35 29 27 29 32 25 23 24 16 13 15 17 14 15 15 15 13 15 15 16 14 16 16 11 10 13 13 12 12 13 14 15 16 12 10 10 8 7 8 7 9 6 5 9 13 16 16 14 12 14 16 14 13 12 11 12 11 8 6 8 8 8 9 6 4 4 6 7 5 4 6 nan nan 4 4 3 5 nan nan nan
28 30 31 35 38 30 24 27 29 30 27 23 23 19 15 16 18 16 14 15 15 13 14 15 16 15 17 16 12 10 12 14 13 14 14 11 12 12 12 12 10 5 7 7 7 8 9 3 9 13 16 17 12 11 11 12 14 11 12 13 9 9 6 7 9 9 8 6 5 6 5 6 7 5 5 5 nan nan nan 5 4 5 6 6 6
29 31 34 37 31 24 21 24 25 28 26 22 19 18 19 20 21 20 19 17 14 13 14 15 16 15 15 16 14 12 11 13 14 14 12 11 10 10 10 10 5 2 6 7 6 7 6 6 10 13 16 17 12 10 8 8 12 14 9 7 8 10 11 7 9 7 7 6 6 6 5 6 7 6 nan nan nan nan nan nan nan 5 6 7 7
31 35 39 33 23 21 22 22 25 26 22 19 19 20 20 21 20 22 21 18 16 16 17 15 16 15 15 17 15 13 12 12 15 15 14 13 11 11 11 9 7 3 8 7 6 7 7 8 9 12 14 14 13 11 10 10 11 8 11 nan nan 9 9 10 10 nan 6 6 6 6 6 7 8 nan nan 6 nan nan nan 7 7 6 7 7 nan
36 38 37 26 22 20 22 21 24 24 20 18 20 23 22 22 19 19 17 15 16 20 21 21 19 17 16 17 17 13 13 13 15 15 15 13 12 12 10 10 9 3 5 9 7 6 9 10 11 14 14 12 13 13 11 9 9 11 10 10 nan nan 15 nan nan nan 6 7 nan 7 nan nan nan nan 8 9 8 nan nan 7 nan 6 7 nan 7
40 38 30 20 17 21 20 19 22 24 21 21 22 24 24 20 19 18 17 17 17 18 22 23 22 19 19 17 16 14 15 15 13 14 14 12 11 9 10 10 8 6 6 10 9 8 9 10 12 13 11 12 13 13 12 10 11 10 10 10 9 10 nan nan 10 nan 11 8 8 7 nan nan nan nan 7 7 6 6 6 8 nan 8 9 nan nan
41 36 27 20 20 22 22 20 20 23 22 22 22 20 21 19 18 16 16 15 15 20 23 23 23 24 22 19 17 16 17 16 14 14 14 14 10 9 9 10 7 9 10 10 9 10 11 10 12 12 11 12 13 15 13 12 13 9 10 10 10 14 13 12 nan nan 13 12 10 9 9 6 6 6 5 6 7 8 9 nan nan nan nan nan nan
35 27 24 23 25 28 26 23 20 21 20 20 19 17 18 19 19 18 16 12 13 18 21 22 24 24 23 19 18 17 16 15 14 13 16 16 12 10 10 10 9 11 13 12 12 12 11 11 14 14 12 12 13 14 15 12 12 12 11 8 12 12 nan 12 12 nan nan 12 11 10 9 8 9 nan 4 4 6 nan nan nan nan nan nan nan nan
32 24 21 24 23 26 29 26 19 18 20 19 17 18 17 18 18 18 19 16 16 19 22 23 23 22 21 18 17 17 16 14 14 16 16 17 13 11 12 12 12 14 15 14 14 14 13 15 14 14 13 14 13 15 15 12 12 11 10 11 12 12 12 10 8 10 10 8 12 nan nan nan nan 5 5 8 6 nan nan nan nan nan nan nan nan
29 27 26 24 26 26 28 27 21 19 20 19 17 17 17 16 16 18 20 21 19 20 21 21 23 22 20 18 17 15 15 15 18 19 19 18 14 13 14 14 16 17 17 17 16 15 15 14 14 15 14 14 13 14 15 13 13 11 9 12 13 13 12 10 10 10 nan nan nan nan nan nan nan nan 7 8 7 nan nan nan nan nan nan nan nan
Wind_Direction
291 299 297 296 290 289 289 287 285 285 286 287 287 288 289 290 291 293 295 297 297 298 300 301 302 302 301 301 302 302 301 301 301 302 303 303 302 301 300 299 295 297 301 300 300 304 307 307 308 309 302 301 294 292 290 291 293 294 294 292 284 281 279 279 278 278 268 260 257 253 252 251 249 250 254 255 263 261 262 264 266 272 289 278 275
300 296 292 294 292 287 286 285 282 283 284 285 286 286 288 288 290 293 295 296 297 299 301 303 303 304 303 304 305 304 303 302 302 303 304 305 304 304 300 298 298 298 294 297 301 303 305 307 310 311 307 304 301 295 292 292 295 298 296 296 293 289 287 284 280 273 266 259 252 248 246 246 245 246 248 253 259 260 261 261 265 277 282 271 270
290 293 291 292 291 287 284 282 279 280 282 283 284 286 286 287 290 292 295 295 297 300 302 304 304 305 305 306 307 307 306 305 304 305 306 307 307 303 302 300 300 300 299 298 298 299 302 306 312 312 309 306 302 296 294 296 296 301 307 305 304 302 300 298 293 285 277 269 257 249 248 249 252 253 255 257 261 262 262 260 260 263 271 266 267
290 290 288 289 286 283 281 279 278 278 280 281 283 285 286 287 289 292 294 295 298 301 303 304 305 306 307 308 309 308 307 307 307 308 308 308 309 306 303 304 302 302 301 300 298 299 298 302 311 315 310 306 305 298 297 298 304 310 316 314 310 308 301 298 296 284 271 263 263 262 242 241 251 257 262 263 263 261 264 266 261 260 262 266 267
286 286 282 280 277 278 278 278 277 276 278 280 282 284 286 288 290 291 294 296 299 302 304 305 306 307 308 310 310 309 309 309 311 310 309 309 310 307 304 302 304 306 303 301 302 300 299 301 308 315 313 307 305 302 300 298 301 314 325 326 312 297 299 286 275 281 271 264 263 257 273 262 259 261 262 262 263 263 263 262 265 259 258 262 266
283 282 278 274 272 273 276 276 275 277 279 281 282 284 286 288 291 292 294 297 300 303 304 305 307 308 308 309 311 310 309 310 310 309 309 310 311 308 307 306 307 307 305 303 301 298 298 300 306 312 312 309 308 309 308 309 318 326 311 302 294 279 273 239 221 33 204 225 269 276 275 274 267 259 263 268 268 266 263 263 260 260 257 257 259
279 277 273 268 265 268 273 274 275 277 279 280 282 286 287 289 291 292 295 298 301 303 303 304 306 307 308 309 310 309 309 309 309 308 308 311 313 312 308 308 310 310 306 303 303 300 300 301 306 309 307 305 308 312 318 333 337 326 339 335 323 281 240 199 177 145 131 295 290 302 297 280 276 271 267 265 265 264 264 263 262 259 261 257 258
273 271 267 263 260 267 272 274 276 278 280 281 284 286 287 289 291 292 296 299 301 302 303 304 306 306 307 308 308 309 307 307 307 307 309 313 314 310 308 311 314 308 306 305 302 304 302 304 305 304 301 301 306 310 327 357 357 353 4 358 298 251 218 203 155 126 122 11 327 310 290 272 272 274 274 273 267 262 260 257 257 260 259 257 255
268 264 261 259 260 270 272 275 277 280 282 282 283 284 286 288 290 294 297 299 300 301 301 304 305 305 306 306 306 305 304 305 306 307 309 311 311 307 312 313 313 309 305 304 303 303 305 305 304 303 294 294 301 313 337 8 12 18 40 15 234 239 219 186 170 236 267 299 nan nan 283 291 300 290 279 275 268 262 256 252 256 261 264 260 257
260 256 258 258 260 271 275 277 280 282 282 282 283 285 287 289 292 294 296 297 298 299 300 302 304 304 304 304 305 305 304 304 305 308 309 308 309 311 314 316 314 312 312 307 306 307 300 300 302 297 286 287 297 307 350 276 279 109 94 208 214 219 208 190 213 264 290 283 nan nan 282 277 279 277 278 273 269 265 270 270 263 258 265 265 261
257 258 262 265 271 277 280 281 283 284 283 283 284 287 289 291 292 293 294 295 297 298 299 302 303 302 302 303 305 305 304 304 305 308 309 310 311 315 317 316 315 310 307 307 300 297 299 297 299 302 293 289 298 316 335 259 138 108 170 187 194 201 201 188 214 nan nan nan nan nan 289 279 286 282 279 275 273 269 264 261 260 258 257 265 263
263 267 270 275 284 282 282 282 283 284 285 287 288 290 291 291 291 291 293 295 297 299 301 302 302 301 301 302 305 304 303 305 306 307 310 312 314 317 318 315 310 305 305 301 296 296 299 303 303 305 298 290 290 301 330 354 69 5 224 187 188 193 194 180 258 nan nan nan nan nan nan 272 278 279 280 283 281 276 271 267 266 263 260 260 266
273 278 280 278 277 280 280 281 284 286 289 291 292 293 292 292 291 293 295 296 298 300 301 300 300 299 300 302 304 305 304 305 305 308 311 314 316 318 317 313 307 304 303 300 298 297 300 304 306 304 295 280 275 284 303 335 355 328 300 143 168 180 177 181 313 nan nan nan nan nan nan nan nan 286 283 281 280 274 268 265 262 264 261 259 258
277 280 285 285 285 287 287 289 291 294 295 296 294 294 295 295 295 297 298 299 299 298 298 297 297 297 299 300 301 304 303 302 304 310 313 315 317 318 316 311 307 303 302 299 298 298 300 301 299 300 294 275 268 276 276 294 8 21 95 108 125 157 175 153 305 nan nan nan nan nan nan 298 283 277 286 285 275 270 269 270 271 269 267 264 254
291 293 291 293 294 295 300 297 298 299 299 298 298 298 297 297 298 299 299 298 297 296 295 294 294 295 295 296 300 304 302 301 306 312 314 315 316 314 313 308 305 304 303 301 298 299 299 299 299 300 294 279 273 277 270 299 40 62 80 95 120 149 177 284 312 308 nan nan nan nan nan 299 290 281 278 275 275 277 272 269 268 265 262 256 250
291 294 293 300 307 307 305 304 303 302 303 302 301 299 298 298 298 300 300 298 296 293 292 291 292 292 291 292 298 304 300 300 305 309 311 314 313 313 310 307 306 306 304 300 299 300 299 298 298 300 300 289 284 285 282 287 37 71 74 92 123 151 164 264 304 298 nan nan nan nan nan 301 281 284 286 280 276 273 271 269 266 265 266 261 259
294 299 300 308 311 308 306 304 307 307 303 300 298 297 297 298 299 301 300 297 296 294 292 291 289 288 288 292 297 301 301 300 303 307 310 311 311 311 310 307 308 308 302 299 300 300 298 299 301 305 308 300 287 286 286 275 271 22 53 96 126 144 206 294 307 306 nan 302 nan nan 299 304 299 299 285 281 276 271 270 266 265 266 265 263 nan
297 302 302 305 304 302 301 300 300 296 294 293 294 296 297 299 301 302 301 301 299 296 292 290 287 287 288 290 295 300 301 298 301 304 308 308 308 309 307 308 310 306 302 299 299 299 298 299 300 307 314 305 290 284 272 265 269 287 351 117 161 186 243 285 297 296 295 298 nan 301 nan 292 286 287 287 281 281 280 274 270 266 263 265 262 258
295 299 301 303 301 299 300 297 297 294 293 291 292 296 300 301 301 299 300 299 297 295 293 289 288 288 291 295 298 302 299 297 299 302 303 305 307 306 304 306 307 304 301 301 299 298 299 299 301 306 312 307 293 277 266 263 268 272 271 198 198 212 278 288 297 297 300 nan nan nan 311 299 301 285 280 281 279 279 277 273 269 265 261 261 260
293 297 301 300 298 294 288 285 283 286 289 293 296 297 303 305 304 299 296 293 291 290 291 289 289 291 293 294 297 298 297 296 301 301 304 303 302 302 304 305 306 303 301 300 299 298 298 298 300 308 316 314 300 291 282 279 266 261 256 219 206 249 300 302 295 298 308 308 nan 317 306 296 289 290 289 287 nan 277 275 275 271 269 267 264 259
293 296 293 291 291 291 290 285 285 286 289 289 289 292 299 308 309 306 302 294 287 288 289 290 288 289 289 290 289 285 285 288 294 294 302 298 301 303 305 307 303 301 301 300 299 298 299 298 300 305 311 304 293 287 286 277 257 258 267 242 239 296 307 303 299 304 309 307 304 310 304 302 295 292 290 286 285 283 279 275 272 268 264 261 nan
296 292 286 288 287 290 290 286 285 286 287 287 288 290 296 306 308 306 303 298 292 286 282 280 283 280 288 286 283 283 282 283 288 297 292 297 300 303 305 303 301 300 298 299 298 298 297 299 299 302 308 305 285 283 284 283 278 273 265 235 301 319 311 302 302 308 309 313 313 316 314 305 299 293 289 290 285 281 278 274 nan nan nan nan 257
291 283 280 286 287 287 285 284 284 285 289 286 287 290 295 297 302 303 303 305 299 286 275 278 277 281 281 282 284 283 283 285 287 294 292 300 299 303 303 303 302 300 297 294 294 295 295 296 298 302 306 309 286 278 284 297 289 283 278 288 329 334 311 297 297 305 309 313 nan 310 308 306 306 299 291 286 286 nan nan nan nan nan nan nan nan
288 285 284 282 282 278 281 282 283 286 288 289 290 294 296 297 298 301 302 300 297 289 278 273 275 278 279 282 284 282 284 286 298 304 298 292 295 299 303 303 303 299 295 287 290 289 292 292 296 300 294 282 279 273 283 286 294 293 284 294 286 296 292 286 300 309 nan 313 309 304 309 312 306 nan 297 294 284 277 273 275 nan nan nan nan nan
282 277 277 281 278 275 278 279 281 287 289 292 297 300 298 296 296 299 300 292 289 290 281 271 273 276 280 282 281 277 282 286 288 286 283 289 291 291 292 288 285 284 288 280 282 282 281 285 285 289 280 276 276 283 283 283 287 286 303 294 281 259 278 284 300 300 295 303 304 302 305 311 312 308 304 294 286 281 280 276 nan nan nan nan nan
278 277 279 280 277 277 280 282 286 290 292 295 300 303 300 297 296 296 294 285 280 284 282 275 272 274 276 279 276 276 278 284 284 285 285 288 291 290 287 284 284 283 280 282 284 282 288 287 293 nan 283 277 282 289 299 302 295 311 310 294 282 279 277 285 296 298 297 303 304 302 309 310 305 303 299 296 291 288 nan 278 nan nan nan nan nan
276 276 279 279 280 282 285 288 293 295 296 295 299 301 298 292 290 290 287 280 267 272 277 270 267 268 272 274 276 276 276 282 284 285 287 289 290 287 285 286 287 287 285 280 nan 283 nan 289 286 nan 276 262 264 265 284 296 299 312 296 291 293 281 279 294 298 299 301 304 305 305 309 306 298 300 300 295 292 289 281 nan nan nan nan nan nan
268 278 283 285 287 292 293 297 301 303 301 301 303 302 295 286 285 287 282 280 259 257 263 264 261 263 267 271 277 276 277 280 283 285 287 286 283 277 277 282 281 282 281 279 287 nan nan nan 284 280 267 265 259 266 276 287 300 296 289 296 298 282 268 290 296 300 303 302 304 304 299 299 300 302 299 295 292 291 289 283 nan nan nan nan nan
279 286 286 291 298 303 306 309 309 308 304 303 304 302 294 281 274 274 279 273 255 248 254 259 259 261 266 273 276 276 274 277 275 279 284 281 267 259 269 274 270 274 281 289 287 293 nan 298 300 294 278 265 262 262 290 281 293 291 286 292 288 285 275 289 297 305 nan 302 302 305 302 302 307 304 300 297 293 289 nan nan nan nan nan nan nan
285 288 292 298 304 310 313 313 310 308 305 305 308 302 291 276 268 269 272 269 258 247 249 254 257 265 269 272 272 274 275 274 273 266 272 266 251 248 241 251 276 274 283 293 296 299 306 301 292 283 284 272 274 266 267 290 288 283 276 283 283 285 287 296 299 304 306 303 303 304 304 302 303 304 301 297 292 291 289 284 279 nan nan nan nan
281 287 294 303 306 308 308 301 298 299 305 310 309 298 281 271 270 268 264 266 259 248 245 251 261 267 270 272 270 271 273 269 268 268 267 263 254 255 254 240 229 238 293 309 312 313 305 297 297 298 294 286 266 262 282 280 279 265 273 285 285 295 304 299 303 303 307 308 305 305 308 308 304 302 304 292 287 289 287 nan nan nan nan nan nan
286 296 301 306 306 307 302 300 302 307 310 304 292 282 273 273 277 274 268 266 259 246 244 256 265 267 266 268 269 271 272 268 267 266 263 254 248 252 252 248 nan 227 243 271 283 282 282 287 285 289 283 274 257 nan 286 278 269 266 272 284 289 297 295 287 301 303 308 310 307 308 309 308 306 305 294 283 288 293 nan 295 nan nan nan nan nan
292 294 302 310 311 306 306 301 302 305 309 294 280 275 272 285 290 278 270 266 258 245 246 259 264 261 262 266 270 271 270 271 267 262 255 244 242 246 243 244 244 239 237 251 254 255 260 262 263 265 270 267 278 286 264 255 263 267 269 274 275 284 295 287 297 302 305 310 313 316 316 317 317 309 298 291 295 310 312 303 295 290 285 nan nan
302 304 313 317 313 307 302 297 301 310 304 286 281 279 283 289 283 267 261 259 252 247 247 257 260 257 263 266 269 271 270 269 268 257 240 232 238 239 240 252 254 249 238 233 250 259 253 256 256 261 268 275 284 284 272 266 260 260 267 271 271 277 288 282 291 296 299 307 315 319 325 324 324 323 315 309 315 319 319 313 301 292 292 291 291
308 308 313 315 307 301 298 299 306 312 304 289 289 294 287 291 285 266 264 259 247 246 248 253 255 257 263 264 269 272 267 265 263 257 237 227 232 226 231 271 270 258 250 234 223 258 250 243 247 258 261 277 288 288 281 272 266 256 255 261 271 269 267 278 274 279 291 304 314 322 326 334 333 326 314 311 318 329 337 332 314 296 296 301 305
302 303 304 301 299 296 296 300 312 304 294 290 289 282 276 286 282 269 269 263 244 243 246 246 249 252 258 267 274 266 260 263 255 245 238 225 224 223 243 276 279 254 251 225 226 242 239 234 241 258 266 276 274 265 272 272 262 260 251 252 262 262 269 269 261 264 284 300 310 316 326 335 333 336 339 333 321 329 315 317 305 306 307 314 315
294 298 300 297 296 296 296 304 314 300 291 303 281 274 266 281 278 261 257 253 237 237 240 243 246 250 255 267 275 263 259 265 255 249 240 221 216 234 255 272 261 251 239 219 222 240 233 228 236 248 270 279 278 270 259 259 260 256 252 254 249 251 255 270 253 238 275 306 311 315 323 333 344 340 357 357 335 331 325 326 331 331 334 305 314
290 295 296 298 298 296 296 300 301 299 302 289 269 259 256 269 260 247 242 231 222 233 239 245 248 252 259 268 272 265 263 268 265 259 234 211 227 247 256 262 260 251 240 221 228 233 241 232 243 244 267 276 269 267 268 261 253 250 249 254 253 247 239 239 261 288 307 304 304 316 325 324 318 341 343 341 335 324 330 307 298 289 270 278 320
287 290 290 290 292 292 292 294 293 294 285 269 262 257 255 267 251 242 239 234 226 239 246 250 254 255 262 265 264 264 263 262 257 252 245 229 241 258 269 262 257 248 238 236 250 275 251 239 237 253 254 269 278 276 266 262 265 253 253 250 247 236 221 218 238 279 295 296 304 313 314 325 324 316 304 326 nan 334 318 309 311 309 272 293 340
286 286 288 288 287 286 291 282 281 278 272 266 256 250 249 257 260 250 245 249 259 263 255 252 254 255 263 262 259 259 260 263 257 250 252 242 246 262 275 265 255 243 243 247 244 245 273 270 261 267 268 259 260 264 259 259 258 259 255 250 250 245 258 268 265 285 281 279 287 300 302 313 300 299 306 308 313 329 317 322 336 335 315 302 301
289 289 284 283 280 280 276 266 264 272 267 261 260 252 244 260 262 259 260 261 257 247 251 254 257 257 261 262 261 264 270 268 253 254 256 245 253 257 259 261 251 241 249 255 256 257 263 265 290 254 263 263 255 258 264 269 269 255 246 251 246 241 249 241 249 250 263 265 270 289 289 284 297 305 294 nan nan nan 297 301 308 323 301 293 284
296 289 283 277 274 273 275 268 269 281 287 283 279 272 274 285 278 266 255 266 266 265 263 266 271 270 266 264 270 271 274 268 257 258 262 254 254 247 241 235 241 242 252 243 242 271 259 252 253 248 248 259 248 265 277 268 248 265 269 255 247 241 240 229 243 252 253 257 285 313 283 290 302 305 278 267 nan nan 292 295 279 285 nan nan nan
297 286 278 272 268 280 295 280 275 282 281 288 291 287 279 274 266 263 271 264 263 265 270 271 275 276 270 274 275 268 267 273 269 269 263 259 260 259 254 236 214 230 256 251 246 264 272 259 258 265 259 251 255 254 270 256 266 263 262 264 271 269 261 250 258 251 253 261 273 270 281 295 303 293 278 273 nan nan nan 290 280 277 287 286 286
285 280 274 269 275 292 291 275 270 269 274 283 289 283 273 258 260 270 266 266 274 278 278 272 277 278 273 273 261 252 256 264 266 267 256 253 262 264 255 261 261 312 282 274 272 272 270 267 261 265 269 273 263 257 254 268 271 283 272 265 290 279 286 275 275 256 251 263 275 275 275 283 284 279 nan nan nan nan nan nan nan 288 289 279 274
281 276 270 275 285 297 280 268 265 272 279 286 288 284 269 260 263 260 265 268 262 280 285 276 279 284 277 273 268 259 260 263 265 267 262 264 274 273 268 272 266 253 293 291 298 304 294 277 266 259 265 270 268 258 250 266 281 273 282 nan nan 280 292 294 286 nan 255 267 264 271 275 279 274 nan nan 275 nan nan nan 269 272 271 273 284 nan
267 262 274 287 287 276 271 266 267 273 289 292 280 275 273 274 277 279 289 294 296 297 303 298 291 295 294 276 275 275 272 271 273 270 261 262 272 275 286 283 257 205 291 289 255 267 275 269 261 259 258 264 273 268 264 254 268 276 285 289 nan nan 302 nan nan nan 271 267 nan 262 nan nan nan nan 270 282 286 nan nan 282 nan 276 265 nan 278
263 269 279 277 264 266 272 268 271 279 288 290 282 271 271 276 289 298 301 306 305 299 291 287 288 293 292 286 287 288 280 277 273 269 265 275 281 281 267 276 287 293 286 283 300 284 272 264 261 261 267 273 273 275 285 280 265 269 281 283 278 281 nan nan 288 nan 285 277 266 265 nan nan nan nan 271 281 292 288 285 286 nan 278 276 nan nan
272 281 288 292 276 278 282 270 267 281 287 287 288 286 288 292 293 292 292 296 304 300 296 290 284 288 290 288 284 284 277 276 279 275 280 289 284 270 280 283 290 301 280 272 265 263 262 256 262 269 275 281 282 285 286 288 293 289 282 284 271 275 285 273 nan nan 290 292 280 270 266 258 262 270 277 289 295 299 291 nan nan nan nan nan nan
266 278 288 286 283 287 281 268 270 281 287 294 301 303 297 302 301 297 295 286 292 289 290 288 290 290 286 278 279 277 274 274 272 271 282 294 290 282 279 284 289 277 271 266 258 260 263 261 262 269 274 275 278 283 283 292 285 294 283 274 272 273 nan 271 284 nan nan 289 283 292 286 266 270 nan 250 278 299 nan nan nan nan nan nan nan nan
284 297 294 282 282 279 275 275 276 275 282 291 301 307 299 295 301 305 304 292 285 288 285 285 286 286 281 276 272 272 271 272 261 270 285 291 292 286 275 268 271 261 264 262 260 258 258 259 264 268 267 267 266 278 283 284 284 286 288 288 280 277 268 265 269 275 267 275 299 nan nan nan nan 287 284 295 294 nan nan nan nan nan nan nan nan
288 297 299 299 291 280 274 279 279 260 262 278 292 307 298 296 302 307 304 297 291 289 287 283 281 276 272 272 274 273 269 266 257 269 286 295 295 289 281 272 263 256 263 251 257 263 261 263 266 264 264 268 267 271 273 275 281 283 280 288 294 300 300 291 300 286 nan nan nan nan nan nan nan nan 293 297 287 nan nan nan nan nan nan nan nan